Regional Weather Roundup
Issued by NWS

Home | Current Version | Previous Version | Graphics & Text | Print | Product List | Glossary On
Versions: 1 2 3 4 5 6 7 8 9 10 11 12 13 14 15 16 17 18 19 20 21 22 23 24 25 26 27 28 29 30 31 32 33 34 35 36 37 38 39 40 41 42 43 44 45 46 47 48 49 50
000
ASUS43 KFSD 012110
RWRSD

WEATHER ROUNDUP FOR SOUTH DAKOTA
NATIONAL WEATHER SERVICE SIOUX FALLS SD
400 PM CDT WED OCT 01 2014

NOTE: "FAIR" INDICATES FEW OR NO CLOUDS BELOW 12,000 FEET WITH NO
SIGNIFICANT WEATHER AND/OR OBSTRUCTIONS TO VISIBILITY.


SDZ001>005-009-010-012>017-012200-
NORTHWEST AND NORTH CENTRAL SOUTH DAKOTA

CITY           SKY/WX    TMP DP  RH WIND       PRES   REMARKS
BUFFALO          N/A     52  42  69 NW23      29.80S
FAITH            N/A     55  46  71 NW17      29.84R
MOBRIDGE       PTSUNNY   64  49  57 NW17      29.76R
$$

SDZ012>016-024>037-041>051-057-063-072>074-012200-
SOUTHWEST AND SOUTH CENTRAL SOUTH DAKOTA

CITY           SKY/WX    TMP DP  RH WIND       PRES   REMARKS
RAPID CTY ARPT LGT RAIN  52  46  80 N15       29.87S
PIERRE         MOSUNNY   70  48  45 NW22      29.77R
CUSTER         CLOUDY    48  41  76 N6        29.89S
ELLSWORTH AFB  CLOUDY    53  44  72 N17       29.87
PHILIP         PTSUNNY   63  47  55 NW15G23   29.83R
PINE RIDGE     CLOUDY    59  48  67 N13       29.85S
WINNER         FAIR      72  47  40 NW14      29.78S
$$

SDZ004>011-016>023-039-040-012200-
NORTHEAST SOUTH DAKOTA

CITY           SKY/WX    TMP DP  RH WIND       PRES   REMARKS
ABERDEEN       PTSUNNY   69  51  52 NW12      29.73R
WATERTOWN      SUNNY     71  49  45 NW13      29.71S
SISSETON         N/A     71  51  49 NW16      29.68R
$$

SDZ017-020-022-023-036>040-048>070-012200-
SOUTHEAST SOUTH DAKOTA

CITY           SKY/WX    TMP DP  RH WIND       PRES   REMARKS
SIOUX FALLS    PTSUNNY   76  55  48 NW3       29.72S
HURON          MOSUNNY   73  47  39 W12       29.72R
CHAMBERLAIN    PTSUNNY   71  48  44 NW10G17   29.76R
MITCHELL       SUNNY     73  49  42 NW8       29.73S
YANKTON        SUNNY     73  52  46 NW8       29.72S
$$

ABBREVIATIONS USED IN REMARKS
   TC - TEMPERATURE IN CELSIUS
  WCI - WIND CHILL INDEX
   HX - HEAT INDEX
  VSB - VISIBILITY



USA.gov is the U.S. government's official web portal to all federal, state and local government web resources and services.